Regional Weather Roundup
Issued by NWS

Home | Current Version | Previous Version | Graphics & Text | Print | Product List | Glossary On
Versions: 1 2 3 4 5 6 7 8 9 10 11 12 13 14 15 16 17 18 19 20 21 22 23 24 25 26 27 28 29 30 31 32 33 34 35 36 37 38 39 40 41 42 43 44 45 46 47 48 49 50
259
ASUS44 KLIX 191907
RWRLA
LOUISIANA WEATHER ROUNDUP
NATIONAL WEATHER SERVICE NEW ORLEANS LA
200 PM CDT SUN APR 19 2015

NOTE: "FAIR" INDICATES FEW OR NO CLOUDS BELOW 12,000 FEET WITH NO
      SIGNIFICANT WEATHER AND/OR OBSTRUCTIONS TO VISIBILITY.
      SKY/WX - SKY CONDITION AND SIGNIFICANT WEATHER.
      TMP - AIR TEMPERATURE.    DP   - DEWPOINT TEMPERATURE.
      RH  - RELATIVE HUMIDITY.  PRES - PRESSURE.
      HX  - HEAT INDEX.         WCI  - WIND CHILL INDEX.

*  THESE STATIONS ARE NOT NWS OR FAA STATIONS AND ARE NOT UNDER
   NWS QUALITY CONTROL.

LAZ040-048-061>063-065-066-069-192000-
SOUTHEAST LOUISIANA

CITY           SKY/WX    TMP DP  RH WIND       PRES   REMARKS
N.O. AUDUBON   NOT AVBL
N.O. INTL ARPT MOSUNNY   84  59  42 W14       29.80F
N.O. LAKEFRONT SUNNY     83  66  56 NW10      29.81F
SLIDELL        SUNNY     83  64  52 SW10      29.79F
BATON ROUGE    SUNNY     81  60  48 VRB7G20   29.81F
BOOTHVILLE     MOSUNNY   78  69  73 SW16      29.82F
BELLE CHASSE   MOSUNNY   84  55  36 NW9G18    29.80F
BOGALUSA*        N/A     85  55  35 W10       29.80F
GALLIANO*      CLEAR     82  67  60 SW14G20   29.82F
NEW ROADS*     FAIR      80  61  52 W7        29.81F
GONZALES*      FAIR      82  62  51 W7        29.80F
HAMMOND*       SUNNY     84  54  34 W13G18    29.82S
HOUMA*         SUNNY     82  59  44 SW15      29.82F
PORT FOURCHON* CLEAR     79  68  69 SW14G20   29.86F

$$

LAZ041-044-053-054-192000-
SOUTHWEST LOUISIANA

CITY           SKY/WX    TMP DP  RH WIND       PRES   REMARKS
LAKE CHARLES   SUNNY     79  65  62 SW9       29.80F
LAFAYETTE      SUNNY     82  62  50 SW10      29.81F
PATTERSON      SUNNY     81  64  57 S8G16     29.84S
SALT POINT       N/A     77  70  79 VRB6      29.82S
NEW IBERIA     SUNNY     82  65  56 SW10      29.82F
CHENAULT AIRPK SUNNY     81  63  54 SW8       29.81F

$$

LAZ027-028-192000-
CENTRAL LOUISIANA

CITY           SKY/WX    TMP DP  RH WIND       PRES   REMARKS
FORT POLK      MOSUNNY   79  65  62 S8        29.77F
ALEXANDRIA INT MOSUNNY   77  64  64 CALM      29.76F
ALEXANDRIA     SUNNY     79  63  57 W6        29.78F

$$

LAZ001-002-192000-
NORTHWEST LOUISIANA

CITY           SKY/WX    TMP DP  RH WIND       PRES   REMARKS
SHREVEPORT     MOSUNNY   77  65  66 SW13G21   29.71F
BARKSDALE AFB  MOSUNNY   78  63  60 SW13G21   29.71F
DTN SHREVEPORT MOSUNNY   77  63  61 SW13      29.72F

$$

LAZ014-016-192000-
NORTHEAST LOUISIANA

CITY           SKY/WX    TMP DP  RH WIND       PRES   REMARKS
MONROE         MOSUNNY   80  63  55 SW9       29.75F
TALLULAH       SUNNY     77  61  57 VRB5      29.77F

$$




USA.gov is the U.S. government's official web portal to all federal, state and local government web resources and services.